Weather History for KGRI - August, 2013

Change the Weather History Date:

Saturday, August 17, 2013

  Actual Average Record
Temperature  
Mean Temperature 70 °F 74 °F  
Max Temperature 78 °F 86 °F 106 °F (1936)
Min Temperature 61 °F 63 °F 45 °F (1943)
Degree Days  
Heating Degree Days 0 0  
Month to date heating degree days 0 0  
Since 1 June heating degree days 24 26  
Since 1 July heating degree days 3 2  
Cooling Degree Days 5 9  
Month to date cooling degree days 130 173  
Year to date cooling degree days 845 800  
Since 1 June cooling degree days 750 735  
Growing Degree Days 20 (Base 50)    
Moisture  
Dew Point 61 °F    
Average Humidity 79    
Maximum Humidity 97    
Minimum Humidity 60    
Precipitation  
Precipitation 0.00 in 0.10 in 1.73 in (2010)
Month to date precipitation 2.28 1.83  
Year to date precipitation 18.67 19.48  
Snow  
Snow 0.00 in 0.00 in - ()
Month to date snowfall 0.0 0.0  
Since 1 June snowfall 0.0 0.0  
Since 1 July snowfall 0.0 0.0  
Snow Depth 0.00 in    
Sea Level Pressure  
Sea Level Pressure 30.13 in    
Wind  
Wind Speed 10 mph (SSE)    
Max Wind Speed 16 mph    
Max Gust Speed 22 mph    
Visibility 10 miles    
Events      
T = Trace of Precipitation, MM = Missing Value Source: NWS Daily Summary

Daily Weather History Graph

Daily Weather History Graph

Search for Another Location

Airport or City:

Trip Planner

Search our weather history database for the weather conditions in past years. The results will help you decide how hot, cold, wet, or windy it might be!

Date:

Astronomy

Aug. 17, 2013 Rise Set
Actual Time 6:45 AM CDT 8:28 PM CDT
Civil Twilight 6:16 AM CDT 8:57 PM CDT
Nautical Twilight 5:40 AM CDT 9:33 PM CDT
Astronomical Twilight 5:02 AM CDT 10:10 PM CDT
Moon 5:45 PM CDT (8/17) 2:49 AM CDT (8/17)
Length of Visible Light 14h 41m
Length of Day
13h 43m
Waxing Gibbous, 84% of the Moon is Illuminated
Aug 17
Waxing Gibbous
Aug 20
Full
Aug 28
Last Quarter
Sep 5
New
Sep 12
First Quarter

Hourly Weather History & Observations

Time (CDT) Temp. Dew Point Humidity Pressure Visibility Wind Dir Wind Speed Gust Speed Precip Events Conditions
12:42 AM 64.4 °F 60.8 °F 88% 30.18 in 10.0 mi SE 8.1 mph - N/A   Mostly Cloudy
12:53 AM 64.0 °F 61.0 °F 90% 30.16 in 10.0 mi SSE 9.2 mph - N/A   Overcast
1:53 AM 64.0 °F 61.0 °F 90% 30.15 in 10.0 mi SSE 9.2 mph - N/A   Mostly Cloudy
2:53 AM 63.0 °F 60.1 °F 90% 30.15 in 10.0 mi SSE 5.8 mph - N/A   Mostly Cloudy
3:53 AM 63.0 °F 60.1 °F 90% 30.15 in 10.0 mi South 6.9 mph - N/A   Mostly Cloudy
4:53 AM 63.0 °F 59.0 °F 87% 30.14 in 10.0 mi SSE 10.4 mph - N/A   Mostly Cloudy
5:53 AM 62.1 °F 59.0 °F 90% 30.14 in 10.0 mi SSE 9.2 mph - N/A   Partly Cloudy
6:53 AM 61.0 °F 59.0 °F 93% 30.14 in 8.0 mi SSE 8.1 mph - N/A   Clear
7:53 AM 62.1 °F 59.0 °F 90% 30.15 in 9.0 mi South 10.4 mph - N/A   Clear
8:53 AM 66.0 °F 60.1 °F 81% 30.15 in 10.0 mi South 12.7 mph - N/A   Clear
9:53 AM 69.1 °F 61.0 °F 75% 30.15 in 10.0 mi South 11.5 mph - N/A   Clear
10:53 AM 73.0 °F 63.0 °F 71% 30.15 in 10.0 mi SSE 12.7 mph - N/A   Partly Cloudy
11:53 AM 75.0 °F 64.0 °F 69% 30.14 in 10.0 mi South 10.4 mph - N/A   Scattered Clouds
12:02 PM 75.2 °F 64.4 °F 69% 30.17 in 10.0 mi South 10.4 mph - N/A   Mostly Cloudy
12:32 PM 75.2 °F 64.4 °F 69% 30.16 in 10.0 mi SSE 12.7 mph - N/A   Scattered Clouds
12:53 PM 75.0 °F 63.0 °F 66% 30.13 in 10.0 mi South 12.7 mph - N/A   Mostly Cloudy
1:53 PM 75.9 °F 63.0 °F 64% 30.12 in 10.0 mi South 9.2 mph - N/A   Mostly Cloudy
2:53 PM 77.0 °F 63.0 °F 62% 30.10 in 10.0 mi South 12.7 mph - N/A   Mostly Cloudy
3:53 PM 77.0 °F 64.0 °F 64% 30.09 in 10.0 mi SE 9.2 mph - N/A   Overcast
4:53 PM 75.9 °F 64.0 °F 67% 30.09 in 10.0 mi SSE 12.7 mph - N/A   Mostly Cloudy
5:53 PM 75.0 °F 63.0 °F 66% 30.08 in 10.0 mi SE 13.8 mph - N/A   Overcast
6:53 PM 73.9 °F 62.1 °F 66% 30.08 in 10.0 mi SE 11.5 mph - N/A   Scattered Clouds
7:53 PM 72.0 °F 62.1 °F 71% 30.08 in 10.0 mi SE 9.2 mph - N/A   Mostly Cloudy
8:53 PM 70.0 °F 61.0 °F 73% 30.08 in 10.0 mi SE 9.2 mph - N/A   Mostly Cloudy
9:53 PM 68.0 °F 60.1 °F 76% 30.09 in 10.0 mi SE 8.1 mph - N/A   Scattered Clouds
10:53 PM 66.9 °F 59.0 °F 76% 30.09 in 10.0 mi SE 10.4 mph - N/A   Mostly Cloudy
11:53 PM 64.9 °F 59.0 °F 81% 30.10 in 10.0 mi SSE 6.9 mph - N/A   Scattered Clouds